TimeEST,TemperatureF,Dew PointF,Humidity,Sea Level PressureIn,VisibilityMPH,Wind Direction,Wind SpeedMPH,Gust SpeedMPH,PrecipitationIn,Events,Conditions,WindDirDegrees,DateUTC
12:51 AM,37.9,33.1,83,29.94,10.0,WNW,6.9,-,N/A,,Clear,300,2013-02-14 05:51:00
1:51 AM,37.4,32.0,81,29.95,9.0,WNW,5.8,-,N/A,,Clear,290,2013-02-14 06:51:00
2:51 AM,35.1,30.9,85,29.96,8.0,West,4.6,-,N/A,,Clear,280,2013-02-14 07:51:00
3:51 AM,35.6,30.2,81,29.95,8.0,WNW,6.9,-,N/A,,Clear,300,2013-02-14 08:51:00
4:51 AM,35.1,30.9,85,29.97,7.0,NW,5.8,-,N/A,,Clear,310,2013-02-14 09:51:00
5:51 AM,35.6,30.2,81,29.97,7.0,NW,4.6,-,N/A,,Clear,320,2013-02-14 10:51:00
6:51 AM,33.8,30.2,87,30.02,7.0,West,4.6,-,N/A,,Clear,260,2013-02-14 11:51:00
7:51 AM,34.0,30.9,89,30.04,6.0,NW,6.9,-,N/A,,Clear,310,2013-02-14 12:51:00
8:51 AM,37.0,32.0,82,30.06,7.0,NW,8.1,-,N/A,,Clear,310,2013-02-14 13:51:00
9:51 AM,39.0,33.1,79,30.09,8.0,NW,5.8,-,N/A,,Clear,310,2013-02-14 14:51:00
10:51 AM,43.0,33.1,68,30.11,9.0,Calm,Calm,-,N/A,,Clear,0,2013-02-14 15:51:00
11:51 AM,46.0,33.1,61,30.09,10.0,Calm,Calm,-,N/A,,Clear,0,2013-02-14 16:51:00
12:51 PM,50.0,32.0,50,30.06,10.0,West,6.9,-,N/A,,Clear,270,2013-02-14 17:51:00
1:51 PM,51.1,33.1,50,30.04,10.0,West,6.9,-,N/A,,Clear,270,2013-02-14 18:51:00
2:51 PM,53.1,32.0,45,30.04,10.0,Variable,4.6,-,N/A,,Clear,0,2013-02-14 19:51:00
3:51 PM,55.0,32.0,42,30.03,10.0,Variable,3.5,-,N/A,,Clear,0,2013-02-14 20:51:00
4:51 PM,55.0,30.9,40,30.02,10.0,WNW,6.9,-,N/A,,Clear,290,2013-02-14 21:51:00
5:51 PM,52.0,30.9,45,30.01,10.0,SW,3.5,-,N/A,,Clear,220,2013-02-14 22:51:00
6:51 PM,48.0,32.0,54,30.02,10.0,Calm,Calm,-,N/A,,Clear,0,2013-02-14 23:51:00
7:51 PM,45.0,32.0,60,30.05,10.0,Calm,Calm,-,N/A,,Clear,0,2013-02-15 00:51:00
8:51 PM,43.0,32.0,65,30.06,10.0,Calm,Calm,-,N/A,,Clear,0,2013-02-15 01:51:00
9:51 PM,39.9,33.1,77,30.06,10.0,SW,3.5,-,N/A,,Clear,230,2013-02-15 02:51:00
10:51 PM,36.0,32.0,86,30.08,10.0,SSW,3.5,-,N/A,,Clear,200,2013-02-15 03:51:00
11:51 PM,37.9,33.1,83,30.09,10.0,SW,3.5,-,N/A,,Clear,220,2013-02-15 04:51:00